| time (UTC) | temp F | wind direction | speed MPH | gust MPH | rain 1hr in | rain 24hr in | rain mn in | humidity % | barometer mb |
| 20260510002848 | 69 | 181 | 1.0 | 1.0 | 0.00 | 0.00 | 0.00 | 89 | 1018.6 |
| 20260510002346 | 69 | 248 | 1.0 | 3.0 | 0.00 | 0.00 | 0.00 | 89 | 1018.9 |
| 20260510001843 | 69 | 174 | 1.0 | 1.0 | 0.00 | 0.00 | 0.00 | 88 | 1018.7 |
| 20260510001341 | 69 | 197 | 3.0 | 3.0 | 0.00 | 0.00 | 0.00 | 88 | 1018.5 |
| 20260510000837 | 70 | 177 | 0.0 | 2.0 | 0.00 | 0.00 | 0.00 | 88 | 1018.6 |
| 20260510000334 | 70 | 181 | 1.0 | 1.0 | 0.00 | 0.00 | 0.00 | 87 | 1018.6 |
| 20260509235831 | 70 | 211 | 1.0 | 3.0 | 0.00 | 0.00 | 0.00 | 87 | 1018.7 |
| 20260509235327 | 70 | 219 | 3.0 | 3.0 | 0.00 | 0.00 | 0.00 | 87 | 1018.8 |
| 20260509234823 | 70 | 177 | 0.0 | 2.0 | 0.00 | 0.00 | 0.00 | 87 | 1018.6 |
| 20260509234320 | 70 | 252 | 3.0 | 5.0 | 0.00 | 0.00 | 0.00 | 86 | 1018.2 |
| 20260509233818 | 70 | 222 | 3.0 | 6.0 | 0.00 | 0.00 | 0.00 | 86 | 1018.5 |
| 20260509233316 | 70 | 253 | 4.0 | 7.0 | 0.00 | 0.00 | 0.00 | 86 | 1018.5 |
| 20260509232811 | 70 | 221 | 2.0 | 5.0 | 0.00 | 0.00 | 0.00 | 86 | 1018.6 |
| 20260509232309 | 71 | 242 | 2.0 | 6.0 | 0.00 | 0.00 | 0.00 | 86 | 1018.7 |
| 20260509231805 | 71 | 165 | 1.0 | 3.0 | 0.00 | 0.00 | 0.00 | 86 | 1018.5 |
| 20260509231302 | 71 | 227 | 3.0 | 7.0 | 0.00 | 0.00 | 0.00 | 86 | 1018.3 |
| 20260509230800 | 71 | 292 | 3.0 | 3.0 | 0.00 | 0.00 | 0.00 | 85 | 1018.2 |
| 20260509230257 | 71 | 192 | 1.0 | 3.0 | 0.00 | 0.00 | 0.00 | 85 | 1018.2 |
| 20260509225751 | 71 | 218 | 2.0 | 3.0 | 0.00 | 0.00 | 0.00 | 85 | 1018.1 |
| 20260509225248 | 71 | 204 | 2.0 | 7.0 | 0.00 | 0.00 | 0.00 | 85 | 1018.1 |
| 20260509224744 | 71 | 222 | 3.0 | 5.0 | 0.00 | 0.00 | 0.00 | 84 | 1018.3 |
| 20260509224241 | 71 | 249 | 3.0 | 3.0 | 0.00 | 0.00 | 0.00 | 84 | 1018.2 |
| 20260509223738 | 71 | 228 | 2.0 | 2.0 | 0.00 | 0.00 | 0.00 | 84 | 1017.9 |
| 20260509223235 | 71 | 189 | 1.0 | 3.0 | 0.00 | 0.00 | 0.00 | 83 | 1018.4 |
| 20260509222732 | 71 | 281 | 3.0 | 8.0 | 0.00 | 0.00 | 0.00 | 83 | 1017.9 |
| 20260509222227 | 71 | 218 | 3.0 | 5.0 | 0.00 | 0.00 | 0.00 | 83 | 1018.4 |
| 20260509221723 | 72 | 261 | 5.0 | 7.0 | 0.00 | 0.00 | 0.00 | 82 | 1018.1 |
| 20260509221219 | 72 | 197 | 3.0 | 6.0 | 0.00 | 0.00 | 0.00 | 82 | 1018.1 |
| 20260509220715 | 72 | 240 | 5.0 | 9.0 | 0.00 | 0.00 | 0.00 | 82 | 1018.1 |
| 20260509220212 | 72 | 227 | 5.0 | 7.0 | 0.00 | 0.00 | 0.00 | 81 | 1018.0 |
| 20260509215707 | 72 | 222 | 4.0 | 6.0 | 0.00 | 0.00 | 0.00 | 81 | 1018.2 |
| 20260509215204 | 72 | 229 | 4.0 | 5.0 | 0.00 | 0.00 | 0.00 | 81 | 1018.1 |
| 20260509214702 | 72 | 237 | 2.0 | 6.0 | 0.00 | 0.00 | 0.00 | 80 | 1017.9 |
| 20260509214159 | 72 | 267 | 3.0 | 5.0 | 0.00 | 0.00 | 0.00 | 80 | 1017.9 |
| 20260509213655 | 72 | 236 | 3.0 | 6.0 | 0.00 | 0.00 | 0.00 | 81 | 1017.9 |
| 20260509213151 | 72 | 205 | 7.0 | 8.0 | 0.00 | 0.00 | 0.00 | 81 | 1017.9 |
| 20260509212648 | 72 | 285 | 4.0 | 7.0 | 0.00 | 0.00 | 0.00 | 81 | 1018.0 |
| 20260509212145 | 73 | 249 | 5.0 | 7.0 | 0.00 | 0.00 | 0.00 | 80 | 1018.0 |
| 20260509211641 | 72 | 243 | 2.0 | 7.0 | 0.00 | 0.00 | 0.00 | 80 | 1018.3 |
| 20260509211137 | 73 | 241 | 3.0 | 7.0 | 0.00 | 0.00 | 0.00 | 80 | 1018.2 |
| 20260509210634 | 73 | 254 | 4.0 | 6.0 | 0.00 | 0.00 | 0.00 | 81 | 1018.1 |
| 20260509210131 | 73 | 227 | 2.0 | 6.0 | 0.00 | 0.00 | 0.00 | 83 | 1018.3 |
| 20260509205626 | 72 | 330 | 2.0 | 5.0 | 0.00 | 0.00 | 0.00 | 84 | 1018.0 |
| 20260509205120 | 71 | 233 | 4.0 | 5.0 | 0.00 | 0.00 | 0.00 | 84 | 1018.1 |
| 20260509204617 | 72 | 220 | 3.0 | 6.0 | 0.00 | 0.00 | 0.00 | 84 | 1018.2 |
| 20260509204108 | 72 | 269 | 5.0 | 7.0 | 0.00 | 0.00 | 0.00 | 84 | 1018.2 |
| 20260509203604 | 71 | 234 | 3.0 | 6.0 | 0.00 | 0.00 | 0.00 | 85 | 1018.4 |
| 20260509203103 | 71 | 188 | 5.0 | 6.0 | 0.00 | 0.00 | 0.00 | 85 | 1018.4 |
| 20260509202556 | 72 | 205 | 2.0 | 7.0 | 0.00 | 0.00 | 0.00 | 84 | 1018.5 |
| 20260509202052 | 71 | 244 | 3.0 | 5.0 | 0.00 | 0.00 | 0.00 | 84 | 1018.5 |
| 20260509201547 | 72 | 247 | 4.0 | 5.0 | 0.00 | 0.00 | 0.00 | 85 | 1018.5 |
| 20260509201045 | 72 | 73 | 2.0 | 6.0 | 0.00 | 0.00 | 0.00 | 85 | 1018.6 |
| 20260509200539 | 71 | 201 | 1.0 | 3.0 | 0.00 | 0.00 | 0.00 | 85 | 1018.5 |
| 20260509200036 | 72 | 233 | 2.0 | 3.0 | 0.00 | 0.00 | 0.00 | 85 | 1018.4 |
| 20260509195531 | 71 | 198 | 1.0 | 5.0 | 0.00 | 0.00 | 0.00 | 85 | 1018.5 |
| 20260509195026 | 71 | 284 | 4.0 | 5.0 | 0.00 | 0.00 | 0.00 | 85 | 1018.6 |
| 20260509194521 | 72 | 185 | 1.0 | 2.0 | 0.00 | 0.00 | 0.00 | 84 | 1018.5 |
| 20260509194018 | 72 | 186 | 2.0 | 3.0 | 0.00 | 0.00 | 0.00 | 84 | 1018.5 |
| 20260509193513 | 71 | 96 | 1.0 | 3.0 | 0.00 | 0.00 | 0.00 | 84 | 1018.7 |
| 20260509193010 | 72 | 296 | 3.0 | 3.0 | 0.00 | 0.00 | 0.00 | 84 | 1018.7 |
| 20260509192506 | 72 | 176 | 1.0 | 3.0 | 0.00 | 0.00 | 0.00 | 84 | 1018.7 |
| 20260509192001 | 72 | 243 | 1.0 | 2.0 | 0.00 | 0.00 | 0.00 | 84 | 1018.8 |
| 20260509191456 | 71 | 194 | 1.0 | 5.0 | 0.00 | 0.00 | 0.00 | 84 | 1018.8 |
| 20260509190952 | 71 | 273 | 3.0 | 5.0 | 0.00 | 0.00 | 0.00 | 83 | 1019.1 |
| 20260509190449 | 72 | 180 | 2.0 | 6.0 | 0.00 | 0.00 | 0.00 | 83 | 1019.2 |
| 20260509185946 | 72 | 264 | 6.0 | 8.0 | 0.00 | 0.00 | 0.00 | 82 | 1019.6 |
| 20260509185438 | 72 | 199 | 2.0 | 3.0 | 0.00 | 0.00 | 0.00 | 83 | 1019.2 |
| 20260509184934 | 72 | 278 | 4.0 | 6.0 | 0.00 | 0.00 | 0.00 | 82 | 1019.4 |
| 20260509184432 | 72 | 133 | 1.0 | 5.0 | 0.00 | 0.00 | 0.00 | 82 | 1019.6 |
| 20260509183928 | 72 | 260 | 5.0 | 6.0 | 0.00 | 0.00 | 0.00 | 82 | 1019.6 |
| 20260509183423 | 72 | 236 | 3.0 | 7.0 | 0.00 | 0.00 | 0.00 | 83 | 1019.8 |
| 20260509182920 | 72 | 331 | 3.0 | 5.0 | 0.00 | 0.00 | 0.00 | 83 | 1019.4 |
| 20260509182417 | 72 | 283 | 3.0 | 3.0 | 0.00 | 0.00 | 0.00 | 82 | 1019.7 |
| 20260509181914 | 72 | 263 | 4.0 | 5.0 | 0.00 | 0.00 | 0.00 | 82 | 1019.8 |
| 20260509181412 | 72 | 312 | 4.0 | 5.0 | 0.00 | 0.00 | 0.00 | 81 | 1019.9 |
| 20260509180909 | 73 | 272 | 2.0 | 3.0 | 0.00 | 0.00 | 0.00 | 81 | 1019.5 |
| 20260509180404 | 73 | 294 | 2.0 | 3.0 | 0.00 | 0.00 | 0.00 | 80 | 1019.6 |
| 20260509175901 | 73 | 224 | 6.0 | 7.0 | 0.00 | 0.00 | 0.00 | 79 | 1019.8 |
| 20260509175357 | 73 | 210 | 1.0 | 3.0 | 0.00 | 0.00 | 0.00 | 79 | 1020.2 |
| 20260509174853 | 73 | 10 | 4.0 | 7.0 | 0.00 | 0.00 | 0.00 | 78 | 1020.1 |
| 20260509174349 | 73 | 181 | 2.0 | 7.0 | 0.00 | 0.00 | 0.00 | 78 | 1019.9 |
| 20260509173845 | 73 | 184 | 1.0 | 6.0 | 0.00 | 0.00 | 0.00 | 78 | 1019.3 |
| 20260509173340 | 73 | 232 | 5.0 | 9.0 | 0.00 | 0.00 | 0.00 | 77 | 1018.9 |
| 20260509172837 | 73 | 252 | 3.0 | 7.0 | 0.00 | 0.00 | 0.00 | 79 | 1018.6 |
| 20260509172334 | 73 | 227 | 4.0 | 7.0 | 0.00 | 0.00 | 0.00 | 80 | 1018.4 |
| 20260509171830 | 72 | 199 | 8.0 | 10.0 | 0.00 | 0.00 | 0.00 | 81 | 1018.4 |
| 20260509171325 | 72 | 189 | 5.0 | 9.0 | 0.00 | 0.00 | 0.00 | 82 | 1018.8 |
| 20260509170822 | 72 | 216 | 4.0 | 6.0 | 0.00 | 0.00 | 0.00 | 83 | 1018.6 |
| 20260509170318 | 73 | 201 | 6.0 | 8.0 | 0.00 | 0.00 | 0.00 | 82 | 1018.5 |
| 20260509165818 | 74 | 188 | 5.0 | 6.0 | 0.00 | 0.00 | 0.00 | 81 | 1018.7 |
| 20260509165313 | 74 | 227 | 4.0 | 7.0 | 0.00 | 0.00 | 0.00 | 79 | 1019.0 |
| 20260509164809 | 74 | 250 | 5.0 | 6.0 | 0.00 | 0.00 | 0.00 | 76 | 1019.4 |
| 20260509164305 | 73 | 225 | 3.0 | 5.0 | 0.00 | 0.00 | 0.00 | 77 | 1019.3 |
| 20260509163801 | 73 | 246 | 3.0 | 7.0 | 0.00 | 0.00 | 0.00 | 78 | 1019.5 |
| 20260509163258 | 73 | 17 | 7.0 | 8.0 | 0.00 | 0.00 | 0.00 | 79 | 1019.6 |
| 20260509162757 | 74 | 184 | 2.0 | 2.0 | 0.00 | 0.00 | 0.00 | 82 | 1019.4 |
| 20260509162251 | 73 | 251 | 2.0 | 3.0 | 0.00 | 0.00 | 0.00 | 81 | 1019.2 |
| 20260509161747 | 73 | 302 | 4.0 | 6.0 | 0.00 | 0.00 | 0.00 | 81 | 1019.4 |
| 20260509161243 | 73 | 269 | 3.0 | 5.0 | 0.00 | 0.00 | 0.00 | 82 | 1019.5 |
| 20260509160739 | 73 | 238 | 3.0 | 5.0 | 0.00 | 0.00 | 0.00 | 81 | 1019.6 |
| 20260509160235 | 73 | 223 | 2.0 | 6.0 | 0.00 | 0.00 | 0.00 | 82 | 1019.5 |
| 20260509155730 | 73 | 231 | 3.0 | 8.0 | 0.00 | 0.00 | 0.00 | 83 | 1019.4 |
| 20260509155227 | 72 | 257 | 4.0 | 7.0 | 0.00 | 0.00 | 0.00 | 83 | 1019.4 |
| 20260509154723 | 73 | 304 | 3.0 | 5.0 | 0.00 | 0.00 | 0.00 | 82 | 1019.5 |
| 20260509154220 | 73 | 274 | 4.0 | 7.0 | 0.00 | 0.00 | 0.00 | 81 | 1019.4 |
| 20260509153717 | 73 | 264 | 3.0 | 8.0 | 0.00 | 0.00 | 0.00 | 81 | 1019.4 |
| 20260509153213 | 73 | 281 | 3.0 | 10.0 | 0.00 | 0.00 | 0.00 | 81 | 1019.1 |
| 20260509152709 | 74 | 207 | 5.0 | 8.0 | 0.00 | 0.00 | 0.00 | 80 | 1019.0 |
| 20260509152207 | 74 | 202 | 3.0 | 9.0 | 0.00 | 0.00 | 0.00 | 79 | 1019.1 |
| 20260509151704 | 74 | 269 | 4.0 | 7.0 | 0.00 | 0.00 | 0.00 | 79 | 1019.1 |
| 20260509151200 | 74 | 280 | 6.0 | 10.0 | 0.00 | 0.00 | 0.00 | 78 | 1019.1 |
| 20260509150658 | 74 | 243 | 6.0 | 8.0 | 0.00 | 0.00 | 0.00 | 78 | 1018.9 |
| 20260509150156 | 74 | 186 | 6.0 | 7.0 | 0.00 | 0.00 | 0.00 | 80 | 1019.4 |
| 20260509145652 | 74 | 234 | 5.0 | 10.0 | 0.00 | 0.00 | 0.00 | 80 | 1019.5 |
| 20260509145147 | 74 | 259 | 5.0 | 6.0 | 0.00 | 0.00 | 0.00 | 79 | 1019.5 |
| 20260509144644 | 75 | 308 | 4.0 | 5.0 | 0.00 | 0.00 | 0.00 | 81 | 1019.5 |
| 20260509144142 | 73 | 178 | 2.0 | 3.0 | 0.00 | 0.00 | 0.00 | 82 | 1019.6 |
| 20260509143638 | 73 | 271 | 5.0 | 8.0 | 0.00 | 0.00 | 0.00 | 82 | 1019.8 |
| 20260509143136 | 73 | 173 | 2.0 | 8.0 | 0.00 | 0.00 | 0.00 | 82 | 1019.8 |
| 20260509142631 | 73 | 225 | 8.0 | 11.0 | 0.00 | 0.00 | 0.00 | 82 | 1019.9 |
| 20260509142128 | 73 | 177 | 2.0 | 8.0 | 0.00 | 0.00 | 0.00 | 84 | 1019.7 |
| 20260509141624 | 73 | 195 | 11.0 | 14.0 | 0.00 | 0.00 | 0.00 | 84 | 1020.0 |
| 20260509141120 | 71 | 204 | 3.0 | 8.0 | 0.00 | 0.00 | 0.00 | 87 | 1020.0 |
| 20260509140617 | 70 | 292 | 4.0 | 7.0 | 0.00 | 0.00 | 0.00 | 90 | 1019.9 |
| 20260509140116 | 69 | 246 | 5.0 | 8.0 | 0.00 | 0.00 | 0.00 | 92 | 1020.0 |
| 20260509135612 | 69 | 254 | 5.0 | 7.0 | 0.00 | 0.00 | 0.00 | 94 | 1019.9 |
| 20260509135111 | 68 | 200 | 2.0 | 7.0 | 0.00 | 0.00 | 0.00 | 96 | 1020.0 |
| 20260509134607 | 68 | 189 | 2.0 | 8.0 | 0.00 | 0.00 | 0.00 | 96 | 1020.0 |
| 20260509134104 | 68 | 209 | 1.0 | 3.0 | 0.00 | 0.00 | 0.00 | 97 | 1019.9 |
| 20260509133601 | 68 | 221 | 1.0 | 3.0 | 0.00 | 0.00 | 0.00 | 97 | 1020.0 |
| 20260509133059 | 67 | 221 | 3.0 | 6.0 | 0.00 | 0.00 | 0.00 | 98 | 1019.9 |
| 20260509132557 | 66 | 203 | 2.0 | 5.0 | 0.00 | 0.00 | 0.00 | 98 | 1019.7 |
| 20260509132055 | 66 | 162 | 2.0 | 5.0 | 0.00 | 0.00 | 0.00 | 98 | 1019.7 |
| 20260509131550 | 66 | 179 | 1.0 | 3.0 | 0.00 | 0.00 | 0.00 | 98 | 1020.0 |
| 20260509131048 | 66 | 196 | 2.0 | 2.0 | 0.00 | 0.00 | 0.00 | 98 | 1019.8 |
| 20260509130543 | 66 | 174 | 3.0 | 5.0 | 0.00 | 0.00 | 0.00 | 98 | 1019.6 |
| 20260509130040 | 66 | 177 | 1.0 | 5.0 | 0.00 | 0.00 | 0.00 | 99 | 1019.8 |
| 20260509125537 | 66 | 191 | 3.0 | 6.0 | 0.00 | 0.00 | 0.00 | 99 | 1019.6 |
| 20260509125033 | 66 | 193 | 2.0 | 3.0 | 0.00 | 0.00 | 0.00 | 99 | 1019.8 |
| 20260509124530 | 65 | 171 | 4.0 | 5.0 | 0.00 | 0.00 | 0.00 | 99 | 1019.6 |
| 20260509124027 | 65 | 180 | 4.0 | 6.0 | 0.00 | 0.00 | 0.00 | 99 | 1019.8 |
| 20260509123525 | 65 | 172 | 3.0 | 5.0 | 0.00 | 0.00 | 0.00 | 99 | 1019.7 |
| 20260509123016 | 65 | 173 | 2.0 | 5.0 | 0.00 | 0.00 | 0.00 | 99 | 1019.9 |
| 20260509122513 | 65 | 160 | 2.0 | 2.0 | 0.00 | 0.00 | 0.00 | 99 | 1019.7 |
| 20260509122009 | 65 | 215 | 2.0 | 2.0 | 0.00 | 0.00 | 0.00 | 99 | 1019.9 |
| 20260509121505 | 64 | 165 | 0.0 | 1.0 | 0.00 | 0.00 | 0.00 | 99 | 1019.9 |
| 20260509121004 | 64 | 211 | 2.0 | 2.0 | 0.00 | 0.00 | 0.00 | 99 | 1019.7 |
| 20260509120501 | 64 | 170 | 1.0 | 1.0 | 0.00 | 0.00 | 0.00 | 99 | 1019.6 |
| 20260509115959 | 64 | 167 | 1.0 | 1.0 | 0.00 | 0.00 | 0.00 | 99 | 1019.6 |
| 20260509115456 | 64 | 188 | 2.0 | 2.0 | 0.00 | 0.00 | 0.00 | 99 | 1019.8 |
| 20260509114953 | 64 | 198 | 2.0 | 2.0 | 0.00 | 0.00 | 0.00 | 99 | 1019.7 |
| 20260509114446 | 64 | 203 | 3.0 | 5.0 | 0.00 | 0.00 | 0.00 | 99 | 1019.6 |
| 20260509113946 | 64 | 167 | 1.0 | 2.0 | 0.00 | 0.00 | 0.00 | 99 | 1019.7 |
| 20260509113442 | 64 | 196 | 2.0 | 3.0 | 0.00 | 0.00 | 0.00 | 99 | 1019.7 |
| 20260509112939 | 64 | 214 | 2.0 | 2.0 | 0.00 | 0.00 | 0.00 | 99 | 1019.8 |
| 20260509112436 | 64 | 207 | 2.0 | 3.0 | 0.00 | 0.00 | 0.00 | 99 | 1019.6 |
| 20260509111933 | 64 | 170 | 0.0 | 1.0 | 0.00 | 0.00 | 0.00 | 99 | 1019.5 |
| 20260509111430 | 64 | 239 | 4.0 | 5.0 | 0.00 | 0.00 | 0.00 | 99 | 1019.2 |
| 20260509110922 | 64 | 211 | 2.0 | 5.0 | 0.00 | 0.00 | 0.00 | 99 | 1019.2 |
| 20260509110417 | 64 | 192 | 2.0 | 3.0 | 0.00 | 0.00 | 0.00 | 99 | 1019.0 |
| 20260509105916 | 64 | 214 | 3.0 | 5.0 | 0.00 | 0.00 | 0.00 | 99 | 1019.0 |
| 20260509105414 | 64 | 181 | 1.0 | 6.0 | 0.00 | 0.00 | 0.00 | 99 | 1018.8 |
| 20260509104911 | 64 | 177 | 2.0 | 3.0 | 0.00 | 0.00 | 0.00 | 99 | 1018.7 |
| 20260509104407 | 63 | 176 | 3.0 | 3.0 | 0.00 | 0.00 | 0.00 | 99 | 1018.8 |
| 20260509103859 | 63 | 176 | 2.0 | 2.0 | 0.00 | 0.00 | 0.00 | 99 | 1018.7 |
| 20260509103355 | 63 | 177 | 1.0 | 2.0 | 0.00 | 0.00 | 0.00 | 99 | 1018.7 |
| 20260509102854 | 63 | 178 | 0.0 | 1.0 | 0.00 | 0.00 | 0.00 | 99 | 1018.8 |
| 20260509102352 | 63 | 184 | 2.0 | 3.0 | 0.00 | 0.00 | 0.00 | 99 | 1018.6 |
| 20260509101847 | 63 | 177 | 3.0 | 3.0 | 0.00 | 0.00 | 0.00 | 99 | 1018.5 |
| 20260509101343 | 63 | 199 | 3.0 | 3.0 | 0.00 | 0.00 | 0.00 | 99 | 1018.7 |
| 20260509100842 | 63 | 171 | 1.0 | 2.0 | 0.00 | 0.00 | 0.00 | 99 | 1018.8 |
| 20260509100339 | 63 | 179 | 1.0 | 3.0 | 0.00 | 0.00 | 0.00 | 98 | 1018.9 |
| 20260509095835 | 63 | 206 | 2.0 | 2.0 | 0.00 | 0.00 | 0.00 | 98 | 1018.8 |
| 20260509095332 | 63 | 186 | 1.0 | 3.0 | 0.00 | 0.00 | 0.00 | 98 | 1018.6 |
| 20260509094830 | 63 | 171 | 1.0 | 2.0 | 0.00 | 0.00 | 0.00 | 98 | 1018.4 |
| 20260509094326 | 63 | 182 | 1.0 | 2.0 | 0.00 | 0.00 | 0.00 | 98 | 1018.3 |
| 20260509093824 | 63 | 175 | 0.0 | 0.0 | 0.00 | 0.00 | 0.00 | 98 | 1018.3 |
| 20260509093321 | 63 | 175 | 0.0 | 0.0 | 0.00 | 0.00 | 0.00 | 98 | 1018.5 |
| 20260509092819 | 63 | 177 | 2.0 | 2.0 | 0.00 | 0.00 | 0.00 | 98 | 1018.3 |
| 20260509092317 | 63 | 187 | 3.0 | 3.0 | 0.00 | 0.00 | 0.00 | 98 | 1017.9 |
| 20260509091815 | 62 | 150 | 1.0 | 3.0 | 0.00 | 0.00 | 0.00 | 98 | 1018.0 |
| 20260509091311 | 63 | 152 | 4.0 | 5.0 | 0.00 | 0.00 | 0.00 | 98 | 1017.9 |
| 20260509090809 | 63 | 171 | 4.0 | 5.0 | 0.00 | 0.00 | 0.00 | 98 | 1017.8 |
| 20260509090306 | 62 | 173 | 3.0 | 3.0 | 0.00 | 0.00 | 0.00 | 98 | 1017.8 |
| 20260509085803 | 62 | 164 | 2.0 | 2.0 | 0.00 | 0.00 | 0.00 | 98 | 1018.1 |
| 20260509085300 | 63 | 152 | 1.0 | 1.0 | 0.00 | 0.00 | 0.00 | 98 | 1018.0 |
| 20260509084757 | 62 | 146 | 1.0 | 1.0 | 0.00 | 0.00 | 0.00 | 98 | 1018.0 |
| 20260509084254 | 63 | 148 | 1.0 | 2.0 | 0.00 | 0.00 | 0.00 | 98 | 1018.3 |
| 20260509083752 | 63 | 164 | 1.0 | 1.0 | 0.00 | 0.00 | 0.00 | 98 | 1018.6 |
| 20260509083248 | 63 | 164 | 0.0 | 1.0 | 0.00 | 0.00 | 0.00 | 98 | 1018.5 |
| 20260509082745 | 63 | 148 | 0.0 | 1.0 | 0.00 | 0.00 | 0.00 | 97 | 1018.8 |
| 20260509082241 | 63 | 147 | 0.0 | 1.0 | 0.00 | 0.00 | 0.00 | 97 | 1018.6 |
| 20260509081738 | 63 | 147 | 0.0 | 0.0 | 0.00 | 0.00 | 0.00 | 97 | 1018.8 |
| 20260509081236 | 63 | 147 | 0.0 | 1.0 | 0.00 | 0.00 | 0.00 | 97 | 1018.9 |
| 20260509080734 | 63 | 151 | 0.0 | 1.0 | 0.00 | 0.00 | 0.00 | 97 | 1018.6 |
| 20260509080231 | 63 | 166 | 0.0 | 2.0 | 0.00 | 0.00 | 0.00 | 97 | 1018.8 |
| 20260509075729 | 63 | 191 | 2.0 | 3.0 | 0.00 | 0.00 | 0.00 | 97 | 1018.6 |
| 20260509075227 | 63 | 163 | 1.0 | 5.0 | 0.00 | 0.00 | 0.00 | 97 | 1018.4 |
| 20260509074723 | 63 | 204 | 3.0 | 5.0 | 0.00 | 0.00 | 0.00 | 97 | 1018.4 |
| 20260509074221 | 63 | 202 | 5.0 | 6.0 | 0.00 | 0.00 | 0.00 | 97 | 1018.2 |
| 20260509073717 | 63 | 185 | 5.0 | 6.0 | 0.00 | 0.00 | 0.00 | 97 | 1018.1 |
| 20260509073213 | 63 | 168 | 6.0 | 7.0 | 0.00 | 0.00 | 0.00 | 97 | 1018.5 |
| 20260509072710 | 63 | 175 | 6.0 | 7.0 | 0.00 | 0.00 | 0.00 | 97 | 1018.7 |
| 20260509072207 | 64 | 163 | 3.0 | 5.0 | 0.00 | 0.00 | 0.00 | 97 | 1018.9 |
| 20260509071703 | 64 | 175 | 4.0 | 5.0 | 0.00 | 0.00 | 0.00 | 96 | 1019.2 |
| 20260509071200 | 64 | 160 | 1.0 | 2.0 | 0.00 | 0.00 | 0.00 | 96 | 1019.3 |
| 20260509070652 | 64 | 172 | 2.0 | 3.0 | 0.00 | 0.00 | 0.00 | 96 | 1019.2 |
| 20260509070148 | 64 | 167 | 0.0 | 1.0 | 0.00 | 0.00 | 0.00 | 96 | 1019.4 |
| 20260509065644 | 64 | 163 | 0.0 | 0.0 | 0.00 | 0.00 | 0.00 | 96 | 1019.5 |
| 20260509065140 | 64 | 203 | 3.0 | 5.0 | 0.00 | 0.00 | 0.00 | 96 | 1019.6 |
| 20260509064638 | 63 | 204 | 2.0 | 3.0 | 0.00 | 0.00 | 0.00 | 96 | 1019.5 |
| 20260509064136 | 64 | 194 | 3.0 | 3.0 | 0.00 | 0.00 | 0.00 | 96 | 1019.2 |
| 20260509063632 | 64 | 155 | 3.0 | 5.0 | 0.00 | 0.00 | 0.00 | 96 | 1019.2 |
| 20260509063128 | 64 | 164 | 2.0 | 2.0 | 0.00 | 0.00 | 0.00 | 96 | 1019.2 |
| 20260509062625 | 64 | 174 | 3.0 | 5.0 | 0.00 | 0.00 | 0.00 | 96 | 1019.3 |
| 20260509062117 | 64 | 193 | 2.0 | 2.0 | 0.00 | 0.00 | 0.00 | 96 | 1019.7 |
| 20260509061614 | 64 | 181 | 1.0 | 2.0 | 0.00 | 0.00 | 0.00 | 96 | 1019.5 |
| 20260509061111 | 64 | 156 | 0.0 | 0.0 | 0.00 | 0.00 | 0.00 | 96 | 1019.2 |
| 20260509060609 | 64 | 206 | 1.0 | 2.0 | 0.00 | 0.00 | 0.00 | 96 | 1019.4 |
| 20260509060104 | 64 | 207 | 3.0 | 6.0 | 0.00 | 0.00 | 0.00 | 96 | 1019.2 |
| 20260509055600 | 64 | 208 | 2.0 | 3.0 | 0.00 | 0.00 | 0.00 | 96 | 1019.1 |
| 20260509055056 | 64 | 186 | 5.0 | 7.0 | 0.00 | 0.00 | 0.00 | 96 | 1019.2 |
| 20260509054553 | 64 | 221 | 3.0 | 7.0 | 0.00 | 0.00 | 0.00 | 96 | 1019.3 |
| 20260509054051 | 64 | 205 | 4.0 | 9.0 | 0.00 | 0.00 | 0.00 | 96 | 1019.2 |
| 20260509053549 | 63 | 184 | 4.0 | 5.0 | 0.00 | 0.00 | 0.00 | 96 | 1019.7 |
| 20260509053046 | 63 | 191 | 4.0 | 6.0 | 0.00 | 0.00 | 0.00 | 96 | 1019.8 |
| 20260509052544 | 64 | 172 | 6.0 | 7.0 | 0.00 | 0.00 | 0.00 | 96 | 1019.8 |
| 20260509052042 | 64 | 187 | 4.0 | 6.0 | 0.00 | 0.00 | 0.00 | 95 | 1019.6 |
| 20260509051539 | 64 | 176 | 3.0 | 6.0 | 0.00 | 0.00 | 0.00 | 95 | 1019.9 |
| 20260509051036 | 64 | 183 | 5.0 | 6.0 | 0.00 | 0.00 | 0.00 | 95 | 1020.2 |
| 20260509050533 | 64 | 189 | 3.0 | 6.0 | 0.00 | 0.00 | 0.00 | 95 | 1020.5 |
| 20260509050029 | 64 | 186 | 3.0 | 6.0 | 0.00 | 0.00 | 0.00 | 95 | 1020.3 |
| 20260509045526 | 64 | 194 | 5.0 | 7.0 | 0.00 | 0.00 | 0.00 | 95 | 1020.4 |
| 20260509045023 | 64 | 184 | 1.0 | 6.0 | 0.00 | 0.00 | 0.00 | 95 | 1020.6 |
| 20260509044520 | 64 | 211 | 4.0 | 6.0 | 0.00 | 0.00 | 0.00 | 95 | 1020.6 |
| 20260509044013 | 64 | 188 | 6.0 | 10.0 | 0.00 | 0.00 | 0.00 | 95 | 1020.2 |
| 20260509043508 | 64 | 170 | 7.0 | 10.0 | 0.00 | 0.00 | 0.00 | 95 | 1019.8 |
| 20260509043005 | 64 | 164 | 6.0 | 7.0 | 0.00 | 0.00 | 0.00 | 94 | 1020.0 |
| 20260509042501 | 64 | 166 | 4.0 | 5.0 | 0.00 | 0.00 | 0.00 | 94 | 1020.5 |
| 20260509041957 | 64 | 123 | 1.0 | 5.0 | 0.00 | 0.00 | 0.00 | 94 | 1020.5 |
| 20260509041454 | 64 | 191 | 4.0 | 5.0 | 0.00 | 0.00 | 0.00 | 94 | 1021.1 |
| 20260509040952 | 64 | 153 | 5.0 | 6.0 | 0.00 | 0.00 | 0.00 | 93 | 1020.8 |
| 20260509040450 | 64 | 344 | 1.0 | 3.0 | 0.00 | 0.00 | 0.00 | 93 | 1021.3 |
| 20260509035946 | 64 | 96 | 3.0 | 6.0 | 0.00 | 0.00 | 0.00 | 92 | 1020.7 |
| 20260509035443 | 64 | 187 | 1.0 | 2.0 | 0.00 | 0.00 | 0.00 | 92 | 1021.5 |
| 20260509034939 | 65 | 172 | 0.0 | 2.0 | 0.00 | 0.00 | 0.00 | 92 | 1021.3 |
| 20260509034438 | 65 | 176 | 0.0 | 2.0 | 0.00 | 0.00 | 0.00 | 92 | 1021.5 |
| 20260509033934 | 65 | 188 | 2.0 | 2.0 | 0.00 | 0.00 | 0.00 | 92 | 1021.3 |
| 20260509033431 | 65 | 172 | 1.0 | 2.0 | 0.00 | 0.00 | 0.00 | 92 | 1021.6 |
| 20260509032928 | 65 | 159 | 4.0 | 6.0 | 0.00 | 0.00 | 0.00 | 91 | 1021.0 |
| 20260509032425 | 65 | 175 | 2.0 | 2.0 | 0.00 | 0.00 | 0.00 | 91 | 1021.7 |
| 20260509031923 | 65 | 172 | 2.0 | 5.0 | 0.00 | 0.00 | 0.00 | 91 | 1021.6 |
| 20260509031420 | 65 | 181 | 1.0 | 2.0 | 0.00 | 0.00 | 0.00 | 91 | 1021.6 |
| 20260509030917 | 65 | 222 | 3.0 | 3.0 | 0.00 | 0.00 | 0.00 | 91 | 1021.7 |
| 20260509030416 | 65 | 175 | 1.0 | 3.0 | 0.00 | 0.00 | 0.00 | 91 | 1021.5 |
| 20260509025912 | 65 | 193 | 3.0 | 3.0 | 0.00 | 0.00 | 0.00 | 91 | 1021.2 |
| 20260509025408 | 65 | 201 | 3.0 | 5.0 | 0.00 | 0.00 | 0.00 | 91 | 1021.0 |
| 20260509024903 | 65 | 178 | 4.0 | 6.0 | 0.00 | 0.00 | 0.00 | 91 | 1020.9 |
| 20260509024359 | 64 | 166 | 5.0 | 9.0 | 0.00 | 0.00 | 0.00 | 92 | 1020.0 |
| 20260509023857 | 65 | 150 | 4.0 | 6.0 | 0.00 | 0.00 | 0.00 | 91 | 1020.3 |
| 20260509023354 | 65 | 158 | 4.0 | 6.0 | 0.00 | 0.00 | 0.00 | 91 | 1020.8 |
| 20260509022850 | 65 | 175 | 4.0 | 7.0 | 0.00 | 0.00 | 0.00 | 91 | 1020.8 |
| 20260509022348 | 65 | 177 | 5.0 | 8.0 | 0.00 | 0.00 | 0.00 | 91 | 1021.3 |
| 20260509021844 | 65 | 175 | 7.0 | 8.0 | 0.00 | 0.00 | 0.00 | 91 | 1021.2 |
| 20260509021341 | 65 | 156 | 6.0 | 9.0 | 0.00 | 0.00 | 0.00 | 91 | 1021.2 |
| 20260509020839 | 65 | 169 | 5.0 | 8.0 | 0.00 | 0.00 | 0.00 | 91 | 1021.2 |
| 20260509020337 | 65 | 169 | 6.0 | 8.0 | 0.00 | 0.00 | 0.00 | 91 | 1021.3 |
| 20260509015834 | 66 | 147 | 4.0 | 7.0 | 0.00 | 0.00 | 0.00 | 90 | 1021.6 |
| 20260509015332 | 66 | 146 | 1.0 | 5.0 | 0.00 | 0.00 | 0.00 | 89 | 1021.8 |
| 20260509014828 | 66 | 174 | 5.0 | 6.0 | 0.00 | 0.00 | 0.00 | 87 | 1021.8 |
| 20260509014320 | 67 | 184 | 6.0 | 8.0 | 0.00 | 0.00 | 0.00 | 85 | 1021.8 |
| 20260509013817 | 68 | 157 | 4.0 | 9.0 | 0.00 | 0.00 | 0.00 | 83 | 1021.7 |
| 20260509013313 | 68 | 188 | 5.0 | 7.0 | 0.00 | 0.00 | 0.00 | 82 | 1022.0 |
| 20260509012809 | 68 | 194 | 5.0 | 8.0 | 0.00 | 0.00 | 0.00 | 82 | 1021.8 |
| 20260509012307 | 68 | 188 | 7.0 | 8.0 | 0.00 | 0.00 | 0.00 | 82 | 1021.4 |
| 20260509011803 | 68 | 190 | 5.0 | 6.0 | 0.00 | 0.00 | 0.00 | 82 | 1021.3 |
| 20260509011301 | 68 | 185 | 5.0 | 7.0 | 0.00 | 0.00 | 0.00 | 83 | 1021.1 |
| 20260509010758 | 67 | 175 | 2.0 | 2.0 | 0.00 | 0.00 | 0.00 | 83 | 1021.4 |
| 20260509010255 | 66 | 189 | 1.0 | 3.0 | 0.00 | 0.00 | 0.00 | 85 | 1021.2 |
| 20260509005752 | 66 | 180 | 0.0 | 2.0 | 0.00 | 0.00 | 0.00 | 87 | 1021.0 |
| 20260509005249 | 66 | 123 | 2.0 | 2.0 | 0.00 | 0.00 | 0.00 | 87 | 1020.9 |
| 20260509004743 | 67 | 122 | 2.0 | 2.0 | 0.00 | 0.00 | 0.00 | 87 | 1020.9 |
| 20260509004241 | 67 | 120 | 1.0 | 1.0 | 0.00 | 0.00 | 0.00 | 86 | 1020.9 |
| 20260509003739 | 67 | 120 | 0.0 | 0.0 | 0.00 | 0.00 | 0.00 | 85 | 1020.7 |
| 20260509003236 | 66 | 120 | 0.0 | 0.0 | 0.00 | 0.00 | 0.00 | 85 | 1020.5 |